THA462 VTSP-VTSM

Flight info

Callsign THA462
Flight time 0h 41m
Altitude 23000
Route EMRIT1B EMRIT Y99 AKVUG Y93 DORNA
Aircraft A359/H-SDE2E3GHIJ3J4J5LM1ORWXY/LB1D1

Departure

Time 2026-04-18 11:13
Airport Phuket International Airport (VTSP)

Arrival

Time 2026-04-18 11:54
Airport Samui International Airport (VTSM)
Time Latitude Longitude Altitude Speed Heading
2026-04-18 10:38 8.10973 98.30581 34 ft 0 kts 174°
2026-04-18 10:59 8.10982 98.30580 34 ft 3 kts 171°
2026-04-18 10:59 8.11002 98.30576 34 ft 3 kts 159°
2026-04-18 10:59 8.11020 98.30567 31 ft 3 kts 143°
2026-04-18 11:00 8.11034 98.30554 34 ft 3 kts 124°
2026-04-18 11:00 8.11044 98.30536 32 ft 3 kts 106°
2026-04-18 11:00 8.11048 98.30516 32 ft 3 kts 91°
2026-04-18 11:00 8.11047 98.30501 31 ft 1 kts 84°
2026-04-18 11:01 8.11047 98.30500 31 ft 0 kts 84°
2026-04-18 11:03 8.11048 98.30502 32 ft 0 kts 84°
2026-04-18 11:03 8.11048 98.30503 32 ft 0 kts 84°
2026-04-18 11:03 8.11048 98.30510 32 ft 7 kts 84°
2026-04-18 11:04 8.11063 98.30663 34 ft 35 kts 83°
2026-04-18 11:04 8.11087 98.30878 35 ft 20 kts 86°
2026-04-18 11:04 8.11111 98.30973 36 ft 5 kts 69°
2026-04-18 11:04 8.11132 98.31036 36 ft 14 kts 71°
2026-04-18 11:05 8.11138 98.31145 36 ft 16 kts 90°
2026-04-18 11:05 8.11149 98.31271 38 ft 16 kts 85°
2026-04-18 11:05 8.11158 98.31368 40 ft 15 kts 84°
2026-04-18 11:05 8.11168 98.31472 43 ft 15 kts 85°
2026-04-18 11:06 8.11177 98.31592 43 ft 14 kts 85°
2026-04-18 11:06 8.11187 98.31688 52 ft 8 kts 83°
2026-04-18 11:06 8.11194 98.31772 54 ft 18 kts 86°
2026-04-18 11:06 8.11202 98.31857 54 ft 11 kts 84°
2026-04-18 11:07 8.11209 98.31932 59 ft 8 kts 85°
2026-04-18 11:07 8.11217 98.32011 59 ft 6 kts 84°
2026-04-18 11:07 8.11223 98.32067 68 ft 9 kts 83°
2026-04-18 11:07 8.11230 98.32136 71 ft 7 kts 85°
2026-04-18 11:08 8.11235 98.32188 67 ft 12 kts 84°
2026-04-18 11:08 8.11237 98.32204 74 ft 4 kts 84°
2026-04-18 11:08 8.11244 98.32281 74 ft 17 kts 85°
2026-04-18 11:08 8.11260 98.32430 83 ft 21 kts 85°
2026-04-18 11:09 8.11266 98.32531 88 ft 12 kts 84°
2026-04-18 11:09 8.11280 98.32652 92 ft 24 kts 87°
2026-04-18 11:09 8.11296 98.32858 94 ft 35 kts 86°
2026-04-18 11:09 8.11326 98.33051 100 ft 0 kts 84°
2026-04-18 11:10 8.11334 98.33090 104 ft 11 kts 65°
2026-04-18 11:10 8.11357 98.33111 105 ft 1 kts 21°
2026-04-18 11:10 8.11369 98.33112 106 ft 0 kts
2026-04-18 11:10 8.11388 98.33113 103 ft 0 kts 358°
2026-04-18 11:11 8.11395 98.33112 104 ft 7 kts 352°
2026-04-18 11:11 8.11448 98.33059 103 ft 9 kts 276°
2026-04-18 11:11 8.11448 98.33045 102 ft 0 kts 268°
2026-04-18 11:12 8.11448 98.33041 101 ft 4 kts 268°
2026-04-18 11:12 8.11444 98.32993 98 ft 32 kts 265°
2026-04-18 11:12 8.11398 98.32478 86 ft 112 kts 264°
2026-04-18 11:12 8.11298 98.31462 114 ft 173 kts 264°
2026-04-18 11:13 8.11168 98.30134 467 ft 204 kts 263°
2026-04-18 11:13 8.11029 98.28660 944 ft 220 kts 265°
2026-04-18 11:13 8.10864 98.27047 1341 ft 241 kts 263°
2026-04-18 11:13 8.10678 98.25290 1664 ft 262 kts 263°
2026-04-18 11:14 8.10409 98.23411 2055 ft 277 kts 256°
2026-04-18 11:14 8.09474 98.21706 2660 ft 284 kts 225°
2026-04-18 11:14 8.07730 98.20808 3330 ft 286 kts 190°
2026-04-18 11:14 8.05763 98.20869 4132 ft 281 kts 169°
2026-04-18 11:15 8.03932 98.21470 5008 ft 275 kts 158°
2026-04-18 11:15 8.02122 98.22089 5719 ft 276 kts 162°
2026-04-18 11:15 8.00252 98.22558 6369 ft 279 kts 166°
2026-04-18 11:15 7.98336 98.22907 6968 ft 281 kts 169°
2026-04-18 11:16 7.96386 98.23183 7554 ft 285 kts 171°
2026-04-18 11:16 7.94408 98.23420 8140 ft 287 kts 172°
2026-04-18 11:16 7.92413 98.23650 8734 ft 290 kts 170°
2026-04-18 11:16 7.90501 98.24274 9270 ft 291 kts 148°
2026-04-18 11:17 7.89090 98.25707 9828 ft 291 kts 118°
2026-04-18 11:17 7.88529 98.27664 10207 ft 298 kts 94°
2026-04-18 11:17 7.88546 98.29795 10470 ft 311 kts 86°
2026-04-18 11:17 7.88674 98.32015 10688 ft 324 kts 86°
2026-04-18 11:18 7.88806 98.34330 10916 ft 336 kts 86°
2026-04-18 11:18 7.88919 98.36698 11130 ft 348 kts 87°
2026-04-18 11:18 7.89022 98.39162 11392 ft 356 kts 86°
2026-04-18 11:18 7.89128 98.41685 11738 ft 361 kts 87°
2026-04-18 11:19 7.89229 98.44208 12333 ft 358 kts 87°
2026-04-18 11:19 7.89328 98.46702 12969 ft 355 kts 87°
2026-04-18 11:19 7.89440 98.49179 13616 ft 352 kts 85°
2026-04-18 11:19 7.89847 98.51592 14195 ft 347 kts 73°
2026-04-18 11:20 7.90796 98.53804 14782 ft 343 kts 58°
2026-04-18 11:20 7.92122 98.55787 15393 ft 339 kts 53°
2026-04-18 11:20 7.93520 98.57695 16005 ft 336 kts 52°
2026-04-18 11:20 7.94913 98.59580 16645 ft 334 kts 52°
2026-04-18 11:21 7.96288 98.61453 17264 ft 330 kts 52°
2026-04-18 11:21 7.97643 98.63306 17905 ft 327 kts 52°
2026-04-18 11:21 7.98985 98.65146 18510 ft 323 kts 52°
2026-04-18 11:21 8.00307 98.66962 19078 ft 319 kts 52°
2026-04-18 11:22 8.01611 98.68755 19661 ft 315 kts 52°
2026-04-18 11:22 8.02895 98.70520 20258 ft 310 kts 52°
2026-04-18 11:22 8.04155 98.72255 20859 ft 304 kts 52°
2026-04-18 11:22 8.05399 98.73969 21348 ft 304 kts 52°
2026-04-18 11:23 8.06671 98.75715 21553 ft 314 kts 52°
2026-04-18 11:23 8.07988 98.77523 21744 ft 326 kts 52°
2026-04-18 11:23 8.09254 98.79496 22004 ft 344 kts 60°
2026-04-18 11:23 8.10195 98.81766 22259 ft 357 kts 73°
2026-04-18 11:24 8.10644 98.84255 22429 ft 365 kts 84°
2026-04-18 11:24 8.10803 98.86842 22635 ft 374 kts 87°
2026-04-18 11:24 8.10847 98.89495 22800 ft 382 kts 90°
2026-04-18 11:24 8.10823 98.92195 22970 ft 389 kts 89°
2026-04-18 11:25 8.11060 98.94934 23112 ft 396 kts 80°
2026-04-18 11:25 8.11811 98.97627 23244 ft 402 kts 67°
2026-04-18 11:25 8.13151 99.00121 23387 ft 408 kts 54°
2026-04-18 11:25 8.14928 99.02377 23512 ft 414 kts 48°
2026-04-18 11:26 8.16876 99.04541 23631 ft 419 kts 45°
2026-04-18 11:26 8.18924 99.06667 23751 ft 426 kts 44°
2026-04-18 11:26 8.21018 99.08802 23802 ft 441 kts 44°
2026-04-18 11:26 8.23208 99.11046 23809 ft 457 kts 44°
2026-04-18 11:27 8.25457 99.13380 23807 ft 471 kts 45°
2026-04-18 11:27 8.27753 99.15795 23805 ft 483 kts 45°
2026-04-18 11:27 8.30084 99.18265 23804 ft 487 kts 45°
2026-04-18 11:27 8.32422 99.20749 23803 ft 488 kts 45°
2026-04-18 11:28 8.34756 99.23235 23805 ft 488 kts 45°
2026-04-18 11:28 8.37089 99.25723 23807 ft 488 kts 45°
2026-04-18 11:28 8.39425 99.28212 23804 ft 488 kts 45°
2026-04-18 11:28 8.41837 99.30613 23803 ft 487 kts 39°
2026-04-18 11:29 8.44604 99.32569 23806 ft 485 kts 27°
2026-04-18 11:29 8.47706 99.33864 23807 ft 482 kts 14°
2026-04-18 11:29 8.50996 99.34464 23808 ft 480 kts
2026-04-18 11:29 8.54318 99.34771 23804 ft 480 kts
2026-04-18 11:30 8.57661 99.34943 23804 ft 480 kts
2026-04-18 11:30 8.60993 99.35061 23804 ft 480 kts
2026-04-18 11:30 8.64334 99.35170 23804 ft 480 kts
2026-04-18 11:30 8.67668 99.35291 23805 ft 480 kts
2026-04-18 11:31 8.71009 99.35429 23802 ft 480 kts
2026-04-18 11:31 8.74354 99.35581 23801 ft 481 kts
2026-04-18 11:31 8.77690 99.35748 23801 ft 481 kts
2026-04-18 11:31 8.81032 99.35917 23802 ft 481 kts
2026-04-18 11:32 8.84370 99.36085 23792 ft 481 kts
2026-04-18 11:32 8.87709 99.36253 23792 ft 481 kts
2026-04-18 11:32 8.91048 99.36419 23790 ft 481 kts
2026-04-18 11:32 8.94390 99.36586 23789 ft 481 kts
2026-04-18 11:33 8.97732 99.36754 23789 ft 481 kts
2026-04-18 11:33 9.01022 99.36923 23778 ft 481 kts
2026-04-18 11:33 9.04304 99.37468 23517 ft 478 kts 14°
2026-04-18 11:33 9.07353 99.38800 22963 ft 480 kts 30°
2026-04-18 11:34 9.10007 99.40828 22228 ft 475 kts 40°
2026-04-18 11:34 9.12322 99.43181 21347 ft 469 kts 46°
2026-04-18 11:34 9.14474 99.45699 20472 ft 463 kts 49°
2026-04-18 11:34 9.16481 99.48163 19641 ft 456 kts 49°
2026-04-18 11:35 9.18486 99.50618 18752 ft 449 kts 49°
2026-04-18 11:35 9.20478 99.53008 17839 ft 441 kts 48°
2026-04-18 11:35 9.22465 99.55332 16744 ft 432 kts 48°
2026-04-18 11:35 9.24432 99.57581 15662 ft 419 kts 47°
2026-04-18 11:36 9.26338 99.59737 14613 ft 404 kts 48°
2026-04-18 11:36 9.28184 99.61821 13596 ft 391 kts 49°
2026-04-18 11:36 9.29971 99.63841 12472 ft 379 kts 48°
2026-04-18 11:36 9.31705 99.65803 11384 ft 369 kts 48°
2026-04-18 11:37 9.33393 99.67714 10329 ft 359 kts 49°
2026-04-18 11:37 9.35039 99.69575 9279 ft 350 kts 48°
2026-04-18 11:37 9.36644 99.71391 8223 ft 342 kts 48°
2026-04-18 11:37 9.38195 99.73145 7504 ft 325 kts 49°
2026-04-18 11:38 9.39618 99.74810 7119 ft 300 kts 53°
2026-04-18 11:38 9.40496 99.76615 7009 ft 280 kts 76°
2026-04-18 11:38 9.40533 99.78571 7014 ft 282 kts 101°
2026-04-18 11:38 9.39796 99.80407 7017 ft 282 kts 117°
2026-04-18 11:39 9.38826 99.82112 6920 ft 274 kts 120°
2026-04-18 11:39 9.37870 99.83731 6770 ft 263 kts 120°
2026-04-18 11:39 9.36940 99.85321 6329 ft 265 kts 120°
2026-04-18 11:39 9.35996 99.86946 5744 ft 270 kts 120°
2026-04-18 11:40 9.35043 99.88599 5269 ft 271 kts 120°
2026-04-18 11:40 9.34094 99.90244 5058 ft 271 kts 120°
2026-04-18 11:40 9.33177 99.91921 5015 ft 272 kts 115°
2026-04-18 11:40 9.32743 99.93745 5024 ft 272 kts 93°
2026-04-18 11:41 9.32831 99.95658 5019 ft 271 kts 85°
2026-04-18 11:41 9.33026 99.97502 5011 ft 255 kts 84°
2026-04-18 11:41 9.33215 99.99223 5011 ft 237 kts 85°
2026-04-18 11:41 9.33385 100.00836 4918 ft 225 kts 85°
2026-04-18 11:42 9.33542 100.02378 4795 ft 215 kts 85°
2026-04-18 11:42 9.33686 100.03849 4743 ft 207 kts 85°
2026-04-18 11:42 9.33831 100.05293 4727 ft 206 kts 85°
2026-04-18 11:42 9.34228 100.06683 4653 ft 207 kts 63°
2026-04-18 11:43 9.35206 100.07688 4472 ft 197 kts 33°
2026-04-18 11:43 9.36482 100.08039 4213 ft 188 kts
2026-04-18 11:43 9.37752 100.07968 4027 ft 174 kts 355°
2026-04-18 11:43 9.38900 100.07832 3986 ft 161 kts 354°
2026-04-18 11:44 9.40010 100.07706 3686 ft 162 kts 356°
2026-04-18 11:44 9.41142 100.07591 3292 ft 164 kts 356°
2026-04-18 11:44 9.42278 100.07474 2951 ft 164 kts 356°
2026-04-18 11:44 9.43387 100.07360 2731 ft 153 kts 356°
2026-04-18 11:45 9.44424 100.07257 2724 ft 150 kts 357°
2026-04-18 11:45 9.45457 100.07158 2583 ft 148 kts 358°
2026-04-18 11:45 9.46482 100.07032 2260 ft 149 kts 354°
2026-04-18 11:45 9.47496 100.06848 1978 ft 148 kts 352°
2026-04-18 11:46 9.48518 100.06694 1586 ft 147 kts
2026-04-18 11:46 9.49538 100.06612 1247 ft 149 kts 358°
2026-04-18 11:46 9.50575 100.06587 897 ft 148 kts
2026-04-18 11:46 9.51631 100.06537 534 ft 153 kts 356°
2026-04-18 11:47 9.52653 100.06442 333 ft 142 kts 357°
2026-04-18 11:47 9.53617 100.06355 119 ft 136 kts 358°
2026-04-18 11:47 9.54548 100.06273 113 ft 135 kts 358°
2026-04-18 11:47 9.55698 100.06194 397 ft 194 kts 358°
2026-04-18 11:48 9.57116 100.06089 1172 ft 210 kts
2026-04-18 11:48 9.58625 100.06193 1711 ft 226 kts 12°
2026-04-18 11:48 9.60086 100.06911 1964 ft 247 kts 42°
2026-04-18 11:48 9.61087 100.08357 2161 ft 259 kts 72°
2026-04-18 11:49 9.61302 100.10163 2426 ft 258 kts 97°
2026-04-18 11:49 9.60693 100.11841 2490 ft 253 kts 124°
2026-04-18 11:49 9.59440 100.12969 2489 ft 235 kts 152°
2026-04-18 11:49 9.57924 100.13361 2690 ft 217 kts 171°
2026-04-18 11:50 9.56439 100.13494 2865 ft 213 kts 174°
2026-04-18 11:50 9.54964 100.13584 2903 ft 213 kts 177°
2026-04-18 11:50 9.53488 100.13400 2891 ft 214 kts 185°
2026-04-18 11:50 9.52068 100.13265 2795 ft 203 kts 188°
2026-04-18 11:51 9.50857 100.12581 2634 ft 198 kts 224°
2026-04-18 11:51 9.50301 100.11368 2482 ft 186 kts 256°
2026-04-18 11:51 9.49895 100.10229 2411 ft 165 kts 231°
2026-04-18 11:51 9.48992 100.09592 2214 ft 154 kts 197°
2026-04-18 11:52 9.48030 100.09207 2049 ft 148 kts 200°
2026-04-18 11:52 9.47362 100.08451 2024 ft 154 kts 252°
2026-04-18 11:52 9.47671 100.07425 2041 ft 163 kts 317°
2026-04-18 11:52 9.48681 100.06942 1765 ft 159 kts 347°
2026-04-18 11:53 9.49775 100.06727 1389 ft 159 kts 352°
2026-04-18 11:53 9.50861 100.06601 986 ft 154 kts 357°
2026-04-18 11:53 9.51949 100.06504 574 ft 157 kts 358°
2026-04-18 11:53 9.53008 100.06417 284 ft 149 kts 359°
2026-04-18 11:54 9.54014 100.06323 84 ft 139 kts 357°
2026-04-18 11:54 9.54912 100.06240 31 ft 105 kts 355°
2026-04-18 11:54 9.55287 100.06203 23 ft 34 kts 354°
2026-04-18 11:54 9.55475 100.06187 20 ft 28 kts 354°
2026-04-18 11:55 9.55659 100.06192 13 ft 24 kts 358°
2026-04-18 11:55 9.55695 100.06157 12 ft 5 kts 228°
2026-04-18 11:55 9.55601 100.06153 14 ft 19 kts 172°
2026-04-18 11:55 9.55461 100.06184 21 ft 26 kts 169°
2026-04-18 11:56 9.55306 100.06230 21 ft 15 kts 117°
2026-04-18 11:56 9.55292 100.06273 23 ft 9 kts 103°
2026-04-18 11:56 9.55289 100.06312 23 ft 0 kts 91°